63P/Wild 1 (2013)

Japanese version
Home page
Total 6,336 html files since Dec. 4, 1995
Updated on February 4, 2008

---------------------------------------------------------------------

* Profile

* Orbital Elements

Perturbed ephemeris below is based on elements from MPC 36654. 

 Epoch = 2456400.50000 TT   T = 2456393.28047 TT
 Peri. =  169.00554         a =     5.5837970 AU
 Node  =  358.01179 J2000.0 e =     0.6506917
 Incl. =   19.78175         q =     1.9504664 AU

* Finding Charts

* Magnitudes Graph

        m1 = 4.0 + 5 log d + 30 log r

---------------------------------------------------------------------

The orbital elements are calculated using the Minor Planet & Comet Ephemeris Service.
The charts are made with StellaNavigator Ver.8 (AstroArts).
The magnitudes graphs are made with Comet for Windows.

---------------------------------------------------------------------

Copyright(C) 1995-2008 Seiichi Yoshida (comet@aerith.net). All rights reserved.